Weather History for Ahoskie, NC

Change the Weather History Date:

Friday, January 18, 2013

  Actual Average (KEMV) Record (KEMV)
Temperature  
Mean Temperature 36 °F -  
Max Temperature 45 °F 48 °F 72 °F (1990)
Min Temperature 26 °F 27 °F 8 °F (2003)
Degree Days  
Heating Degree Days 30    
Moisture  
Dew Point 29 °F    
Average Humidity 80    
Maximum Humidity 94    
Minimum Humidity 46    
Precipitation  
Precipitation 0.02 in - - ()
Sea Level Pressure  
Sea Level Pressure 30.40 in    
Wind  
Wind Speed 4 mph (NNW)    
Max Wind Speed 13 mph    
Max Gust Speed 17 mph    
Visibility 9 miles    
Events Rain    
Averages and records for this station are not official NWS values.
T = Trace of Precipitation, MM = Missing Value Source: NWS Daily Summary

Daily Weather History Graph

Daily Weather History Graph

Search for Another Location

Airport:

Trip Planner

Search our weather history database for the weather conditions in past years. The results will help you decide how hot, cold, wet, or windy it might be!

Date:

Astronomy

Jan. 18, 2013 Rise Set
Actual Time 7:18 AM EST 5:20 PM EST
Civil Twilight 6:50 AM EST 5:48 PM EST
Nautical Twilight 6:18 AM EST 6:19 PM EST
Astronomical Twilight 5:48 AM EST 6:50 PM EST
Moon 11:09 AM EST (1/18) No Moon Set
Length of Visible Light 10h 58m
Length of Day
10h 02m
Waxing Crescent, 47% of the Moon is Illuminated
Jan 18
Waxing Crescent
Jan 18
First Quarter
Jan 26
Full
Feb 3
Last Quarter
Feb 10
New

Hourly Weather History & Observations

Time (EST) Temp. Windchill Dew Point Humidity Pressure Visibility Wind Dir Wind Speed Gust Speed Precip Events Conditions
12:15 AM 32.5 °F 26.2 °F 30.9 °F 94% 30.06 in 10.0 mi NNW 6.9 mph - N/A Rain Light Rain
12:35 AM 32.5 °F 24.8 °F 30.9 °F 94% 30.08 in 10.0 mi North 9.2 mph - N/A Rain Light Rain
12:55 AM 32.5 °F 27.1 °F 30.9 °F 94% 30.11 in 10.0 mi NNW 5.8 mph - N/A   Overcast
1:15 AM 32.5 °F 28.1 °F 30.9 °F 94% 30.14 in 5.0 mi NNW 4.6 mph - 0.01 in Rain Light Rain
1:35 AM 32.5 °F 29.3 °F 30.9 °F 94% 30.14 in 7.0 mi NNW 3.5 mph - 0.02 in Rain Rain
1:55 AM 32.5 °F 29.3 °F 30.9 °F 94% 30.13 in 10.0 mi NNW 3.5 mph - 0.02 in Rain Light Rain
2:15 AM 32.5 °F - 30.9 °F 94% 30.15 in 10.0 mi Calm Calm - N/A Rain Light Rain
2:35 AM 32.5 °F 28.1 °F 30.7 °F 93% 30.17 in 10.0 mi NW 4.6 mph - N/A   Overcast
2:55 AM 32.5 °F 28.1 °F 31.1 °F 94% 30.20 in 10.0 mi NNW 4.6 mph - N/A   Overcast
3:15 AM 32.9 °F 26.7 °F 31.5 °F 94% 30.18 in 10.0 mi NNW 6.9 mph - N/A   Overcast
3:35 AM 33.1 °F 28.7 °F 31.5 °F 94% 30.19 in 10.0 mi NW 4.6 mph - N/A   Overcast
3:55 AM 33.1 °F 30.0 °F 31.5 °F 94% 30.20 in 10.0 mi NNW 3.5 mph - N/A   Overcast
4:15 AM 32.5 °F - 30.9 °F 94% 30.22 in 10.0 mi Calm Calm - N/A   Overcast
4:35 AM 32.5 °F 29.3 °F 30.7 °F 93% 30.23 in 10.0 mi NW 3.5 mph - N/A   Overcast
4:55 AM 32.5 °F - 30.7 °F 93% 30.24 in 7.0 mi Calm Calm - N/A   Overcast
5:15 AM 32.5 °F 29.3 °F 30.7 °F 93% 30.25 in 7.0 mi WNW 3.5 mph - N/A   Overcast
5:35 AM 32.5 °F 28.1 °F 30.7 °F 93% 30.27 in 7.0 mi NNW 4.6 mph - N/A   Mostly Cloudy
5:55 AM 32.5 °F - 30.7 °F 93% 30.28 in 7.0 mi Calm Calm - N/A   Overcast
6:15 AM 32.5 °F - 30.7 °F 93% 30.29 in 7.0 mi Calm Calm - N/A   Mostly Cloudy
6:35 AM 32.5 °F - 30.7 °F 93% 30.30 in 7.0 mi Calm Calm - N/A   Scattered Clouds
6:55 AM 32.5 °F - 30.7 °F 93% 30.31 in 5.0 mi Calm Calm - N/A   Mostly Cloudy
7:15 AM 32.5 °F 29.3 °F 30.9 °F 94% 30.33 in 4.0 mi NW 3.5 mph - N/A   Overcast
7:35 AM 32.5 °F - 30.9 °F 94% 30.34 in 2.5 mi Calm Calm - N/A   Overcast
7:55 AM 32.5 °F - 30.9 °F 94% 30.36 in 5.0 mi Calm Calm - N/A   Overcast
8:15 AM 32.5 °F 29.3 °F 30.7 °F 93% 30.38 in 10.0 mi WNW 3.5 mph - N/A   Overcast
8:35 AM 32.5 °F 29.3 °F 30.6 °F 92% 30.40 in 10.0 mi NW 3.5 mph - N/A   Overcast
8:55 AM 32.7 °F 29.6 °F 30.9 °F 93% 30.41 in 10.0 mi NNW 3.5 mph - N/A   Scattered Clouds
9:15 AM 35.1 °F 31.0 °F 32.2 °F 89% 30.42 in 10.0 mi North 4.6 mph - N/A   Scattered Clouds
9:35 AM 36.0 °F 33.3 °F 32.2 °F 86% 30.44 in 10.0 mi North 3.5 mph - N/A   Clear
9:55 AM 36.9 °F 30.1 °F 32.0 °F 83% 30.45 in 10.0 mi North 9.2 mph - N/A   Clear
10:15 AM 37.6 °F 32.3 °F 32.0 °F 80% 30.46 in 10.0 mi North 6.9 mph - N/A   Clear
10:35 AM 37.9 °F 32.1 °F 31.8 °F 79% 30.46 in 10.0 mi North 8.1 mph - N/A   Clear
10:55 AM 39.0 °F 34.0 °F 31.8 °F 75% 30.47 in 10.0 mi NNW 6.9 mph - N/A   Clear
11:15 AM 40.8 °F 34.1 °F 33.1 °F 74% 30.46 in 10.0 mi North 11.5 mph - N/A   Clear
11:35 AM 41.5 °F 36.4 °F 32.5 °F 70% 30.46 in 10.0 mi North 8.1 mph 16.1 mph N/A   Scattered Clouds
11:55 AM 42.3 °F 35.5 °F 31.1 °F 65% 30.45 in 10.0 mi North 12.7 mph 16.1 mph N/A   Scattered Clouds
12:15 PM 42.8 °F 36.6 °F 29.5 °F 59% 30.45 in 10.0 mi North 11.5 mph - N/A   Scattered Clouds
12:35 PM 42.8 °F 38.6 °F 29.5 °F 59% 30.44 in 10.0 mi North 6.9 mph - N/A   Clear
12:55 PM 42.8 °F 36.6 °F 29.3 °F 59% 30.45 in 10.0 mi North 11.5 mph - N/A   Scattered Clouds
1:15 PM 45.1 °F 40.3 °F 31.6 °F 59% 30.45 in 10.0 mi North 9.2 mph - N/A   Scattered Clouds
1:35 PM 43.9 °F 38.3 °F 29.8 °F 58% 30.45 in 10.0 mi North 10.4 mph - N/A   Scattered Clouds
1:55 PM 45.1 °F 42.0 °F 28.8 °F 53% 30.46 in 10.0 mi North 5.8 mph - N/A   Clear
2:15 PM 45.1 °F 39.5 °F 27.9 °F 51% 30.47 in 10.0 mi North 11.5 mph 17.3 mph N/A   Clear
2:35 PM 45.1 °F 41.4 °F 27.3 °F 50% 30.48 in 10.0 mi North 6.9 mph - N/A   Clear
2:55 PM 45.1 °F 40.8 °F 28.0 °F 51% 30.48 in 10.0 mi NNE 8.1 mph - N/A   Clear
3:15 PM 44.4 °F 41.2 °F 26.8 °F 50% 30.48 in 10.0 mi North 5.8 mph - N/A   Clear
3:35 PM 45.1 °F 41.4 °F 27.3 °F 50% 30.49 in 10.0 mi North 6.9 mph - N/A   Clear
3:55 PM 44.6 °F 42.2 °F 25.2 °F 46% 30.49 in 10.0 mi North 4.6 mph - N/A   Clear
4:15 PM 42.8 °F 39.3 °F 24.6 °F 49% 30.50 in 10.0 mi North 5.8 mph - N/A   Clear
4:35 PM 40.3 °F 38.2 °F 23.0 °F 50% 30.50 in 10.0 mi North 3.5 mph - N/A   Clear
4:55 PM 39.2 °F 35.9 °F 23.7 °F 54% 30.51 in 10.0 mi North 4.6 mph - N/A   Clear
5:15 PM 37.8 °F - 26.4 °F 64% 30.51 in 10.0 mi Calm Calm - N/A   Clear
5:35 PM 36.5 °F - 25.9 °F 65% 30.52 in 10.0 mi Calm Calm - N/A   Clear
5:55 PM 35.1 °F - 27.3 °F 73% 30.53 in 10.0 mi Calm Calm - N/A   Clear
6:15 PM 35.1 °F - 26.2 °F 70% 30.54 in 10.0 mi Calm Calm - N/A   Clear
6:55 PM 32.5 °F - 28.0 °F 83% 30.55 in 10.0 mi Calm Calm - N/A   Clear
7:15 PM 32.5 °F - 27.5 °F 82% 30.55 in 10.0 mi Calm Calm - N/A   Clear
7:35 PM 32.0 °F - 27.9 °F 85% 30.55 in 10.0 mi Calm Calm - N/A   Clear
7:55 PM 30.2 °F - 26.4 °F 86% 30.55 in 10.0 mi Calm Calm - N/A   Clear
8:15 PM 30.2 °F - 26.6 °F 86% 30.55 in 10.0 mi Calm Calm - N/A   Clear
8:35 PM 30.2 °F - 27.3 °F 89% 30.56 in 10.0 mi Calm Calm - N/A   Clear
8:55 PM 30.2 °F - 27.1 °F 88% 30.55 in 10.0 mi Calm Calm - N/A   Clear
9:15 PM 30.2 °F - 27.5 °F 90% 30.56 in 10.0 mi Calm Calm - N/A   Clear
9:35 PM 28.8 °F - 26.2 °F 90% 30.56 in 10.0 mi Calm Calm - N/A   Clear
9:55 PM 29.3 °F - 26.8 °F 90% 30.55 in 10.0 mi Calm Calm - N/A   Clear
10:15 PM 27.9 °F - 25.3 °F 90% 30.55 in 10.0 mi Calm Calm - N/A   Clear
10:35 PM 27.9 °F - 25.3 °F 90% 30.54 in 10.0 mi Calm Calm - N/A   Clear
10:55 PM 27.9 °F - 25.3 °F 90% 30.53 in 10.0 mi Calm Calm - N/A   Clear
11:15 PM 26.6 °F - 24.1 °F 90% 30.53 in 10.0 mi Calm Calm - N/A   Clear
11:35 PM 26.6 °F - 24.4 °F 92% 30.53 in 10.0 mi Calm Calm - N/A   Clear
11:55 PM 26.6 °F - 24.4 °F 92% 30.52 in 10.0 mi Calm Calm - N/A   Clear